Spearfish, SD

6:52 PM MDT on April 26, 2017 (GMT -0600)
Black Hills-Ice

Weather History for KSPF - December, 2013

Change the Weather History Date:

Friday, December 6, 2013

  Actual Average (KEFC) Record (KEFC)
Temperature  
Mean Temperature -11 °F -  
Max Temperature -4 °F 36 °F 61 °F (1963)
Min Temperature -18 °F 12 °F -23 °F (1972)
Degree Days  
Heating Degree Days 76    
Moisture  
Dew Point -17 °F    
Average Humidity 74    
Maximum Humidity 77    
Minimum Humidity 65    
Precipitation  
Precipitation 0.00 in - - ()
Sea Level Pressure  
Sea Level Pressure 30.31 in    
Wind  
Wind Speed 4 mph (West)    
Max Wind Speed 9 mph    
Max Gust Speed -    
Visibility 10 miles    
Events Snow    
Averages and records for this station are not official NWS values.
T = Trace of Precipitation, MM = Missing Value Source: NWS Daily Summary

Daily Weather History Graph

Daily Weather History Graph

Search for Another Location

Airport or City:

Trip Planner

Search our weather history database for the weather conditions in past years. The results will help you decide how hot, cold, wet, or windy it might be!

Date:

Astronomy

Dec. 06, 2013 Rise Set
Actual Time 8:17 AM CST 5:15 PM CST
Civil Twilight 7:43 AM CST 5:48 PM CST
Nautical Twilight 7:07 AM CST 6:25 PM CST
Astronomical Twilight 6:32 AM CST 7:00 PM CST
Moon 11:18 AM CST (12/6) 9:56 PM CST (12/6)
Length of Visible Light 10h 04m
Length of Day
8h 58m
Waxing Crescent, 19% of the Moon is Illuminated
Dec 6
Waxing Crescent
Dec 9
First Quarter
Dec 17
Full
Dec 25
Last Quarter
Jan 1
New

Hourly Weather History & Observations

Time (CST) Temp. Windchill Dew Point Humidity Pressure Visibility Wind Dir Wind Speed Gust Speed Precip Events Conditions
12:15 AM -7.6 °F -18.8 °F -16.6 °F 65% 30.21 in 10.0 mi WNW 4.6 mph - N/A   Clear
5:35 AM -13.0 °F -25.1 °F -20.2 °F 70% 30.24 in 10.0 mi SW 4.6 mph - N/A Snow Light Snow
5:55 AM -13.0 °F - -18.4 °F 77% 30.24 in 10.0 mi Calm Calm - N/A   Clear
6:15 AM -9.4 °F -22.7 °F -16.6 °F 71% 30.25 in 10.0 mi West 5.8 mph - N/A Snow Light Snow
6:35 AM -9.4 °F -20.9 °F -16.6 °F 71% 30.25 in 10.0 mi WNW 4.6 mph - N/A   Clear
6:55 AM -11.2 °F -20.6 °F -18.4 °F 70% 30.26 in 10.0 mi West 3.5 mph - N/A   Clear
7:15 AM -9.4 °F -22.7 °F -16.6 °F 71% 30.27 in 10.0 mi West 5.8 mph - N/A Snow Light Snow
7:35 AM -9.4 °F -20.9 °F -16.6 °F 71% 30.27 in 10.0 mi WNW 4.6 mph - N/A   Clear
7:55 AM -11.2 °F -20.6 °F -16.6 °F 77% 30.28 in 10.0 mi WSW 3.5 mph - N/A Snow Light Snow
8:15 AM -11.2 °F -23.0 °F -18.4 °F 70% 30.28 in 10.0 mi WSW 4.6 mph - N/A Snow Light Snow
8:35 AM -13.0 °F -22.7 °F -18.4 °F 77% 30.29 in 10.0 mi WSW 3.5 mph - N/A   Clear
8:55 AM -13.0 °F -22.7 °F -18.4 °F 77% 30.29 in 10.0 mi SW 3.5 mph - N/A   Clear
9:15 AM -13.0 °F - -18.4 °F 77% 30.30 in 10.0 mi Calm Calm - N/A   Clear
9:35 AM -11.2 °F -20.6 °F -18.4 °F 70% 30.30 in 10.0 mi WSW 3.5 mph - N/A   Clear
9:55 AM -9.4 °F -18.6 °F -16.6 °F 71% 30.31 in 10.0 mi West 3.5 mph - N/A   Clear
10:15 AM -7.6 °F -20.6 °F -13.0 °F 77% 30.31 in 10.0 mi NW 5.8 mph - N/A   Clear
10:35 AM -7.6 °F -22.1 °F -13.0 °F 77% 30.32 in 10.0 mi NNW 6.9 mph - N/A   Clear
10:55 AM -7.6 °F -24.6 °F -13.0 °F 77% 30.33 in 10.0 mi NW 9.2 mph - N/A   Clear
11:15 AM -7.6 °F -24.6 °F -13.0 °F 77% 30.33 in 10.0 mi NW 9.2 mph - N/A   Clear
11:35 AM -7.6 °F -24.6 °F -13.0 °F 77% 30.33 in 10.0 mi NW 9.2 mph - N/A   Clear
11:55 AM -7.6 °F -23.4 °F -13.0 °F 77% 30.33 in 10.0 mi NW 8.1 mph - N/A   Clear
12:15 PM -7.6 °F -22.1 °F -13.0 °F 77% 30.32 in 10.0 mi NW 6.9 mph - N/A   Clear
12:35 PM -7.6 °F -20.6 °F -13.0 °F 77% 30.32 in 10.0 mi NW 5.8 mph - N/A   Clear
12:55 PM -7.6 °F -18.8 °F -13.0 °F 77% 30.31 in 10.0 mi NW 4.6 mph - N/A   Clear
1:15 PM -5.8 °F - -13.0 °F 71% 30.31 in 10.0 mi North - - N/A   Clear
1:35 PM -5.8 °F -14.5 °F -13.0 °F 71% 30.30 in 10.0 mi WNW 3.5 mph - N/A   Clear
1:55 PM -5.8 °F -18.4 °F -13.0 °F 71% 30.30 in 10.0 mi WNW 5.8 mph - N/A   Clear
2:15 PM -5.8 °F -16.7 °F -13.0 °F 71% 30.30 in 10.0 mi WNW 4.6 mph - N/A   Clear
2:35 PM -5.8 °F -14.5 °F -13.0 °F 71% 30.29 in 10.0 mi WNW 3.5 mph - N/A   Clear
2:55 PM -4.0 °F - -13.0 °F 65% 30.29 in 9.0 mi Calm Calm - N/A Snow Light Snow
3:15 PM -4.0 °F -12.4 °F -11.2 °F 71% 30.29 in 5.0 mi SE 3.5 mph - N/A Snow Light Snow
3:35 PM -7.6 °F -18.8 °F -13.0 °F 77% 30.30 in 10.0 mi NE 4.6 mph - N/A   Clear
3:55 PM -7.6 °F - -13.0 °F 77% 30.30 in 10.0 mi North - - N/A   Clear
4:15 PM -7.6 °F -18.8 °F -13.0 °F 77% 30.30 in 10.0 mi ENE 4.6 mph - N/A Snow Light Snow
4:35 PM -9.4 °F -20.9 °F -14.8 °F 77% 30.31 in 10.0 mi East 4.6 mph - N/A Snow Light Snow
5:55 PM -11.2 °F - -16.6 °F 77% 30.32 in 10.0 mi Calm Calm - N/A   Clear
6:15 PM -11.2 °F - -16.6 °F 77% 30.33 in 10.0 mi Calm Calm - N/A Snow Light Snow
6:35 PM -13.0 °F - -18.4 °F 77% 30.34 in 10.0 mi Calm Calm - N/A   Clear
6:55 PM -13.0 °F - -20.2 °F 70% 30.33 in 10.0 mi Calm Calm - N/A   Clear
7:15 PM -13.0 °F - -20.2 °F 70% 30.34 in 10.0 mi Calm Calm - N/A Snow Light Snow
7:35 PM -14.8 °F - -20.2 °F 77% 30.34 in 10.0 mi Calm Calm - N/A Snow Light Snow
7:55 PM -16.6 °F -29.3 °F -22.0 °F 76% 30.35 in 10.0 mi SSW 4.6 mph - N/A Snow Light Snow
8:15 PM -14.8 °F - -20.2 °F 77% 30.36 in 10.0 mi Calm Calm - N/A Snow Light Snow
8:35 PM -14.8 °F -24.8 °F -20.2 °F 77% 30.36 in 10.0 mi West 3.5 mph - N/A Snow Light Snow
8:55 PM -14.8 °F -24.8 °F -20.2 °F 77% 30.36 in 10.0 mi WNW 3.5 mph - N/A Snow Light Snow
9:15 PM -14.8 °F - -20.2 °F 77% 30.35 in 10.0 mi Calm Calm - N/A   Mostly Cloudy
9:35 PM -16.6 °F - -22.0 °F 76% 30.35 in 10.0 mi Calm Calm - N/A Snow Light Snow
9:55 PM -16.6 °F -26.8 °F -22.0 °F 76% 30.35 in 10.0 mi SSW 3.5 mph - N/A Snow Light Snow
10:15 PM -16.6 °F -26.8 °F -22.0 °F 76% 30.36 in 10.0 mi SSW 3.5 mph - N/A Snow Light Snow
10:35 PM -16.6 °F - -22.0 °F 76% 30.35 in 10.0 mi Calm Calm - N/A Snow Light Snow
10:55 PM -16.6 °F - -22.0 °F 76% 30.36 in 10.0 mi Calm Calm - N/A   Clear
11:15 PM -18.4 °F -28.9 °F -23.8 °F 76% 30.35 in 10.0 mi SW 3.5 mph - N/A Snow Light Snow
11:35 PM -18.4 °F - -23.8 °F 76% 30.35 in 10.0 mi Calm Calm - N/A Snow Light Snow
11:55 PM -18.4 °F -28.9 °F -23.8 °F 76% 30.35 in 10.0 mi SSW 3.5 mph - N/A Snow Light Snow